Weather History for Mineral Wells, TX

Change the Weather History Date:

Friday, December 28, 2012

  Actual Average Record
Temperature  
Mean Temperature 34 °F -  
Max Temperature 42 °F 55 °F 71 °F (1996)
Min Temperature 24 °F 32 °F 23 °F (2008)
Degree Days  
Heating Degree Days 31    
Moisture  
Dew Point 33 °F    
Average Humidity 89    
Maximum Humidity 100    
Minimum Humidity 67    
Precipitation  
Precipitation 0.00 in - - ()
Sea Level Pressure  
Sea Level Pressure 29.99 in    
Wind  
Wind Speed 6 mph (NNW)    
Max Wind Speed 18 mph    
Max Gust Speed 24 mph    
Visibility 5 miles    
Events Fog    
Averages and records for this station are not official NWS values.
T = Trace of Precipitation, MM = Missing Value Source: NWS Daily Summary

Daily Weather History Graph

Daily Weather History Graph

Search for Another Location

Airport:

Trip Planner

Search our weather history database for the weather conditions in past years. The results will help you decide how hot, cold, wet, or windy it might be!

Date:

Astronomy

Dec. 28, 2012 Rise Set
Actual Time 7:33 AM CST 5:34 PM CST
Civil Twilight 7:06 AM CST 6:01 PM CST
Nautical Twilight 6:35 AM CST 6:32 PM CST
Astronomical Twilight 6:05 AM CST 7:02 PM CST
Moon 6:09 PM CST (12/28) 7:31 AM CST (12/28)
Length of Visible Light 10h 55m
Length of Day
10h 00m
Full, 100% of the Moon is Illuminated
Dec 28
Full
Jan 4
Last Quarter
Jan 11
New
Jan 18
First Quarter
Jan 26
Full

Hourly Weather History & Observations

Time (CST) Temp. Windchill Dew Point Humidity Pressure Visibility Wind Dir Wind Speed Gust Speed Precip Events Conditions
12:53 AM 42.1 °F 40.2 °F 41.0 °F 96% 29.86 in 1.8 mi East 3.5 mph - N/A   Overcast
1:21 AM 42.8 °F - 41.0 °F 93% 29.87 in 2.0 mi Calm Calm - N/A   Overcast
1:53 AM 42.1 °F - 41.0 °F 96% 29.86 in 2.0 mi Calm Calm - N/A   Overcast
2:05 AM 42.8 °F - 41.0 °F 93% 29.87 in 1.5 mi Calm Calm - N/A   Overcast
2:53 AM 42.1 °F - 41.0 °F 96% 29.87 in 1.5 mi Calm Calm - N/A   Overcast
3:13 AM 42.8 °F 40.1 °F 41.0 °F 93% 29.87 in 1.2 mi NE 4.6 mph - N/A   Overcast
3:32 AM 42.8 °F - 41.0 °F 93% 29.87 in 1.2 mi Calm Calm - N/A   Overcast
3:42 AM 42.8 °F - 41.0 °F 93% 29.88 in 1.2 mi Calm Calm - N/A   Overcast
3:53 AM 42.1 °F 40.2 °F 41.0 °F 96% 29.88 in 1.2 mi NNE 3.5 mph - N/A   Overcast
4:53 AM 39.9 °F 35.1 °F 39.9 °F 100% 29.88 in 1.2 mi North 6.9 mph - N/A   Overcast
5:50 AM 39.2 °F 35.9 °F 39.2 °F 100% 29.87 in 2.5 mi NE 4.6 mph - N/A   Overcast
5:53 AM 39.0 °F 35.7 °F 39.0 °F 100% 29.88 in 2.5 mi ENE 4.6 mph - N/A   Overcast
6:02 AM 39.2 °F 35.9 °F 39.2 °F 100% 29.89 in 3.0 mi NE 4.6 mph - N/A   Overcast
6:17 AM 39.2 °F 35.0 °F 39.2 °F 100% 29.90 in 2.5 mi North 5.8 mph - N/A   Overcast
6:53 AM 39.0 °F 34.0 °F 37.9 °F 96% 29.92 in 2.5 mi North 6.9 mph - N/A   Overcast
7:00 AM 39.2 °F 34.2 °F 37.4 °F 93% 29.91 in 3.0 mi North 6.9 mph - N/A   Overcast
7:37 AM 39.2 °F 33.6 °F 37.4 °F 93% 29.92 in 3.0 mi North 8.1 mph - N/A   Overcast
7:53 AM 39.0 °F 32.3 °F 37.9 °F 96% 29.94 in 2.5 mi NNW 10.4 mph - N/A   Overcast
8:12 AM 39.2 °F 33.6 °F 37.4 °F 93% 29.95 in 0.8 mi North 8.1 mph - N/A   Overcast
8:53 AM 37.0 °F 30.4 °F 37.0 °F 100% 29.95 in 0.2 mi North 9.2 mph - N/A Fog Fog
9:35 AM 35.6 °F 27.1 °F 35.6 °F 100% 29.98 in 1.5 mi North 12.7 mph - N/A   Overcast
9:53 AM 36.0 °F 27.5 °F 35.1 °F 97% 30.01 in 2.0 mi NNW 12.7 mph - N/A   Overcast
10:12 AM 35.6 °F 26.2 °F 35.6 °F 100% 30.01 in 3.0 mi NNW 15.0 mph - N/A   Overcast
10:39 AM 35.6 °F 27.5 °F 33.8 °F 93% 30.03 in 5.0 mi NNW 11.5 mph - N/A   Overcast
10:53 AM 36.0 °F 27.5 °F 35.1 °F 97% 30.04 in 5.0 mi NNW 12.7 mph - N/A   Overcast
11:42 AM 33.8 °F 23.9 °F 33.8 °F 100% 30.05 in 2.0 mi NW 15.0 mph - N/A   Overcast
11:53 AM 33.1 °F 22.2 °F 30.9 °F 92% 30.05 in 2.0 mi NW 17.3 mph 24.2 mph N/A   Overcast
12:11 PM 33.8 °F 24.3 °F 30.2 °F 87% 30.03 in 3.0 mi NNW 13.8 mph - N/A   Overcast
12:53 PM 33.1 °F 22.6 °F 30.0 °F 89% 30.03 in 4.0 mi NW 16.1 mph 23.0 mph N/A   Overcast
1:25 PM 33.8 °F 22.8 °F 28.4 °F 81% 30.02 in 7.0 mi NW 18.4 mph - N/A   Overcast
1:53 PM 35.1 °F 25.5 °F 28.9 °F 78% 30.02 in 8.0 mi NNW 15.0 mph - N/A   Overcast
2:26 PM 35.6 °F 26.6 °F 28.4 °F 75% 30.02 in 9.0 mi NW 13.8 mph - N/A   Overcast
2:53 PM 36.0 °F 25.6 °F 27.0 °F 70% 30.04 in 9.0 mi WNW 18.4 mph 24.2 mph N/A   Overcast
3:53 PM 36.0 °F 27.1 °F 26.1 °F 67% 30.05 in 10.0 mi NW 13.8 mph - N/A   Overcast
4:53 PM 35.1 °F 25.9 °F 25.0 °F 67% 30.08 in 10.0 mi NW 13.8 mph - N/A   Mostly Cloudy
5:17 PM 33.8 °F 26.4 °F 24.8 °F 70% 30.07 in 10.0 mi NW 9.2 mph - N/A   Scattered Clouds
5:53 PM 34.0 °F 26.6 °F 25.0 °F 70% 30.10 in 10.0 mi NW 9.2 mph - N/A   Partly Cloudy
6:53 PM 30.9 °F 23.5 °F 24.1 °F 76% 30.14 in 10.0 mi NNW 8.1 mph - N/A   Clear
7:53 PM 28.9 °F 21.9 °F 21.9 °F 75% 30.17 in 10.0 mi NW 6.9 mph - N/A   Clear
8:53 PM 28.0 °F 21.7 °F 21.0 °F 75% 30.20 in 10.0 mi NW 5.8 mph - N/A   Clear
9:53 PM 27.0 °F 23.0 °F 19.9 °F 75% 30.22 in 10.0 mi WNW 3.5 mph - N/A   Clear
10:53 PM 26.1 °F 21.9 °F 19.0 °F 75% 30.24 in 10.0 mi WNW 3.5 mph - N/A   Clear
11:53 PM 24.1 °F 18.2 °F 19.0 °F 81% 30.26 in 10.0 mi WSW 4.6 mph - N/A   Clear